Time,TemperatureF,DewpointF,PressureIn,WindDirection,WindDirectionDegrees,WindSpeedMPH,WindSpeedGustMPH,Humidity,HourlyPrecipIn,Conditions,Clouds,dailyrainin,SoftwareType,DateUTC
2013-02-07 00:09:00,42.2,38.3,30.03,North,359,0.0,0.0,86,0.00,,---,0.00,VWS V14.01,2013-02-07 08:09:00,
2013-02-07 00:14:00,42.1,38.2,30.03,North,359,0.0,0.0,86,0.00,,---,0.00,VWS V14.01,2013-02-07 08:14:00,
2013-02-07 00:19:00,41.9,38.0,30.03,North,359,0.0,0.0,86,0.00,,---,0.00,VWS V14.01,2013-02-07 08:19:00,
2013-02-07 00:29:00,41.8,38.2,30.02,North,359,0.0,0.0,87,0.00,,---,0.00,VWS V14.01,2013-02-07 08:29:00,
2013-02-07 00:34:00,41.6,38.0,30.02,North,359,0.0,0.0,87,0.00,,---,0.00,VWS V14.01,2013-02-07 08:34:00,
2013-02-07 00:39:00,41.5,37.9,30.02,North,359,0.0,0.0,87,0.00,,---,0.00,VWS V14.01,2013-02-07 08:39:00,
2013-02-07 00:44:00,41.3,37.7,30.02,North,359,0.0,0.0,87,0.00,,---,0.00,VWS V14.01,2013-02-07 08:44:00,
2013-02-07 00:54:00,41.2,37.6,30.02,North,359,0.0,0.0,87,0.00,,---,0.00,VWS V14.01,2013-02-07 08:54:00,
2013-02-07 01:05:00,41.1,37.5,30.02,North,359,0.0,0.0,87,0.00,,---,0.00,VWS V14.01,2013-02-07 09:05:00,
2013-02-07 01:14:00,40.8,37.2,30.02,North,359,0.0,0.0,87,0.00,,---,0.00,VWS V14.01,2013-02-07 09:14:00,
2013-02-07 01:24:00,40.6,37.3,30.02,North,359,0.0,0.0,88,0.00,,---,0.00,VWS V14.01,2013-02-07 09:24:00,
2013-02-07 01:29:00,40.6,37.3,30.03,North,359,0.0,0.0,88,0.00,,---,0.00,VWS V14.01,2013-02-07 09:29:00,
2013-02-07 01:39:00,40.6,37.3,30.03,North,359,0.0,0.0,88,0.00,,---,0.00,VWS V14.01,2013-02-07 09:39:00,
2013-02-07 01:44:00,40.8,37.8,30.02,North,359,0.0,0.0,89,0.00,,---,0.00,VWS V14.01,2013-02-07 09:44:00,
2013-02-07 01:49:00,40.8,37.8,30.02,North,359,0.0,0.0,89,0.00,,---,0.00,VWS V14.01,2013-02-07 09:49:00,
2013-02-07 01:54:00,40.6,37.6,30.02,North,359,0.0,0.0,89,0.00,,---,0.00,VWS V14.01,2013-02-07 09:54:00,
2013-02-07 01:59:00,40.5,37.5,30.02,North,359,0.0,0.0,89,0.00,,---,0.00,VWS V14.01,2013-02-07 09:59:00,
2013-02-07 02:09:00,40.2,37.2,30.02,North,359,0.0,0.0,89,0.00,,---,0.00,VWS V14.01,2013-02-07 10:09:00,
2013-02-07 02:14:00,39.9,36.9,30.01,North,359,0.0,0.0,89,0.00,,---,0.00,VWS V14.01,2013-02-07 10:14:00,
2013-02-07 02:24:00,39.6,36.6,30.01,North,359,0.0,0.0,89,0.00,,---,0.00,VWS V14.01,2013-02-07 10:24:00,
2013-02-07 02:29:00,39.5,36.5,30.01,North,359,0.0,0.0,89,0.00,,---,0.00,VWS V14.01,2013-02-07 10:29:00,
2013-02-07 02:34:00,39.2,36.2,30.01,North,359,0.0,0.0,89,0.00,,---,0.00,VWS V14.01,2013-02-07 10:34:00,
2013-02-07 02:39:00,39.1,36.1,30.01,North,359,0.0,0.0,89,0.00,,---,0.00,VWS V14.01,2013-02-07 10:39:00,
2013-02-07 02:50:00,38.8,35.8,30.02,North,359,0.0,0.0,89,0.00,,---,0.00,VWS V14.01,2013-02-07 10:50:00,
2013-02-07 02:59:00,38.5,35.5,30.02,North,359,0.0,0.0,89,0.00,,---,0.00,VWS V14.01,2013-02-07 10:59:00,
2013-02-07 03:09:00,38.2,35.2,30.02,North,359,0.0,0.0,89,0.00,,---,0.00,VWS V14.01,2013-02-07 11:09:00,
2013-02-07 03:14:00,38.3,35.3,30.01,North,359,0.0,0.0,89,0.00,,---,0.00,VWS V14.01,2013-02-07 11:14:00,
2013-02-07 03:24:00,38.2,35.2,30.01,North,359,0.0,0.0,89,0.00,,---,0.00,VWS V14.01,2013-02-07 11:24:00,
2013-02-07 03:29:00,38.2,35.5,30.01,North,359,0.0,0.0,90,0.00,,---,0.00,VWS V14.01,2013-02-07 11:29:00,
2013-02-07 03:34:00,38.2,35.5,30.01,North,359,0.0,0.0,90,0.00,,---,0.00,VWS V14.01,2013-02-07 11:34:00,
2013-02-07 03:39:00,38.0,35.3,30.01,North,359,0.0,0.0,90,0.00,,---,0.00,VWS V14.01,2013-02-07 11:39:00,
2013-02-07 03:44:00,38.0,35.3,30.01,North,359,0.0,0.0,90,0.00,,---,0.00,VWS V14.01,2013-02-07 11:44:00,
2013-02-07 03:49:00,37.9,35.2,30.01,North,359,0.0,0.0,90,0.00,,---,0.00,VWS V14.01,2013-02-07 11:49:00,
2013-02-07 03:54:00,37.9,35.2,30.01,North,359,0.0,0.0,90,0.00,,---,0.00,VWS V14.01,2013-02-07 11:54:00,
2013-02-07 03:59:00,37.8,35.1,30.01,North,359,0.0,0.0,90,0.00,,---,0.00,VWS V14.01,2013-02-07 11:59:00,
2013-02-07 04:05:00,37.8,35.1,30.01,North,359,0.0,0.0,90,0.00,,---,0.00,VWS V14.01,2013-02-07 12:05:00,
2013-02-07 04:14:00,37.5,34.8,30.02,North,359,0.0,0.0,90,0.00,,---,0.00,VWS V14.01,2013-02-07 12:14:00,
2013-02-07 04:19:00,37.5,34.8,30.02,North,359,0.0,0.0,90,0.00,,---,0.00,VWS V14.01,2013-02-07 12:19:00,
2013-02-07 04:29:00,37.2,34.5,30.02,North,359,0.0,0.0,90,0.00,,---,0.00,VWS V14.01,2013-02-07 12:29:00,
2013-02-07 04:39:00,37.0,34.3,30.02,North,359,0.0,0.0,90,0.00,,---,0.00,VWS V14.01,2013-02-07 12:39:00,
2013-02-07 04:44:00,37.0,34.3,30.02,North,359,0.0,0.0,90,0.00,,---,0.00,VWS V14.01,2013-02-07 12:44:00,
2013-02-07 04:49:00,37.0,34.6,30.02,North,359,0.0,0.0,91,0.00,,---,0.00,VWS V14.01,2013-02-07 12:49:00,
2013-02-07 04:59:00,36.9,34.5,30.02,North,359,0.0,0.0,91,0.00,,---,0.00,VWS V14.01,2013-02-07 12:59:00,
2013-02-07 05:09:00,36.6,34.2,30.02,North,359,0.0,0.0,91,0.00,,---,0.00,VWS V14.01,2013-02-07 13:09:00,
2013-02-07 05:14:00,36.6,34.2,30.03,North,359,0.0,0.0,91,0.00,,---,0.00,VWS V14.01,2013-02-07 13:14:00,
2013-02-07 05:19:00,36.5,34.1,30.03,North,359,0.0,0.0,91,0.00,,---,0.00,VWS V14.01,2013-02-07 13:19:00,
2013-02-07 05:24:00,36.3,33.9,30.03,North,359,0.0,0.0,91,0.00,,---,0.00,VWS V14.01,2013-02-07 13:24:00,
2013-02-07 05:34:00,36.0,33.6,30.03,North,359,0.0,0.0,91,0.00,,---,0.00,VWS V14.01,2013-02-07 13:34:00,
2013-02-07 05:39:00,36.0,33.6,30.03,North,359,0.0,0.0,91,0.00,,---,0.00,VWS V14.01,2013-02-07 13:39:00,
2013-02-07 05:44:00,35.9,33.5,30.03,North,359,0.0,0.0,91,0.00,,---,0.00,VWS V14.01,2013-02-07 13:44:00,
2013-02-07 05:49:00,35.9,33.5,30.03,North,359,0.0,0.0,91,0.00,,---,0.00,VWS V14.01,2013-02-07 13:49:00,
2013-02-07 05:54:00,35.8,33.4,30.03,North,359,0.0,0.0,91,0.00,,---,0.00,VWS V14.01,2013-02-07 13:54:00,
2013-02-07 05:59:00,35.8,33.4,30.03,North,359,0.0,0.0,91,0.00,,---,0.00,VWS V14.01,2013-02-07 13:59:00,
2013-02-07 06:04:00,35.6,33.2,30.03,North,359,0.0,0.0,91,0.00,,---,0.00,VWS V14.01,2013-02-07 14:04:00,
2013-02-07 06:14:00,35.5,33.1,30.04,North,359,0.0,0.0,91,0.00,,---,0.00,VWS V14.01,2013-02-07 14:14:00,
2013-02-07 06:19:00,35.3,32.9,30.04,North,359,0.0,0.0,91,0.00,,---,0.00,VWS V14.01,2013-02-07 14:19:00,
2013-02-07 06:24:00,35.3,32.9,30.04,North,359,0.0,0.0,91,0.00,,---,0.00,VWS V14.01,2013-02-07 14:24:00,
2013-02-07 06:29:00,35.2,32.8,30.04,North,359,0.0,0.0,91,0.00,,---,0.00,VWS V14.01,2013-02-07 14:29:00,
2013-02-07 06:40:00,35.2,32.8,30.04,North,359,0.0,0.0,91,0.00,,---,0.00,VWS V14.01,2013-02-07 14:40:00,
2013-02-07 06:49:00,35.2,32.8,30.05,North,359,0.0,0.0,91,0.00,,---,0.00,VWS V14.01,2013-02-07 14:49:00,
2013-02-07 06:54:00,35.2,32.8,30.05,North,359,0.0,0.0,91,0.00,,---,0.00,VWS V14.01,2013-02-07 14:54:00,
2013-02-07 06:59:00,35.2,32.8,30.05,North,359,0.0,0.0,91,0.00,,---,0.00,VWS V14.01,2013-02-07 14:59:00,
2013-02-07 07:04:00,35.5,33.4,30.05,North,359,0.0,0.0,92,0.00,,---,0.00,VWS V14.01,2013-02-07 15:04:00,
2013-02-07 07:09:00,35.5,33.4,30.05,North,359,0.0,0.0,92,0.00,,---,0.00,VWS V14.01,2013-02-07 15:09:00,
2013-02-07 07:14:00,35.6,33.5,30.06,North,359,0.0,0.0,92,0.00,,---,0.00,VWS V14.01,2013-02-07 15:14:00,
2013-02-07 07:24:00,35.6,33.5,30.06,NNE,24,0.0,0.0,92,0.00,,---,0.00,VWS V14.01,2013-02-07 15:24:00,
2013-02-07 07:29:00,35.8,33.7,30.06,NNE,25,0.0,0.0,92,0.00,,---,0.00,VWS V14.01,2013-02-07 15:29:00,
2013-02-07 07:34:00,35.8,33.7,30.06,NNE,24,0.0,0.0,92,0.00,,---,0.00,VWS V14.01,2013-02-07 15:34:00,
2013-02-07 07:40:00,35.9,33.8,30.06,NNE,24,0.0,0.0,92,0.00,,---,0.00,VWS V14.01,2013-02-07 15:40:00,
2013-02-07 07:49:00,38.0,36.4,30.07,NNE,24,0.0,0.0,94,0.00,,---,0.00,VWS V14.01,2013-02-07 15:49:00,
2013-02-07 07:54:00,39.1,37.2,30.07,NNE,24,0.0,0.0,93,0.00,,---,0.00,VWS V14.01,2013-02-07 15:54:00,
2013-02-07 07:59:00,39.5,37.7,30.07,NNE,24,0.0,0.0,93,0.00,,---,0.00,VWS V14.01,2013-02-07 15:59:00,
2013-02-07 08:09:00,40.8,38.9,30.07,NNE,24,0.0,0.0,93,0.00,,---,0.00,VWS V14.01,2013-02-07 16:09:00,
2013-02-07 08:19:00,42.1,40.2,30.07,NNE,25,0.0,0.0,93,0.00,,---,0.00,VWS V14.01,2013-02-07 16:19:00,
2013-02-07 08:24:00,42.2,40.0,30.07,NNE,25,0.0,0.0,92,0.00,,---,0.00,VWS V14.01,2013-02-07 16:24:00,
2013-02-07 08:34:00,42.5,40.3,30.06,NNE,25,0.0,0.0,92,0.00,,---,0.00,VWS V14.01,2013-02-07 16:34:00,
2013-02-07 08:44:00,43.5,40.8,30.06,NNE,25,0.0,0.0,90,0.00,,---,0.00,VWS V14.01,2013-02-07 16:44:00,
2013-02-07 08:54:00,44.5,41.2,30.06,SE,130,0.0,0.0,88,0.00,,---,0.00,VWS V14.01,2013-02-07 16:54:00,
2013-02-07 08:59:00,44.6,41.3,30.06,SE,130,0.0,0.0,88,0.00,,---,0.00,VWS V14.01,2013-02-07 16:59:00,
2013-02-07 09:04:00,44.9,41.3,30.06,SE,130,0.0,0.0,87,0.00,,---,0.00,VWS V14.01,2013-02-07 17:04:00,
2013-02-07 09:09:00,45.2,41.0,30.06,SW,215,0.0,0.0,85,0.00,,---,0.00,VWS V14.01,2013-02-07 17:09:00,
2013-02-07 09:14:00,46.1,41.2,30.07,South,185,0.0,0.0,83,0.00,,---,0.00,VWS V14.01,2013-02-07 17:14:00,
2013-02-07 09:24:00,47.3,41.1,30.07,South,185,0.0,0.0,79,0.00,,---,0.00,VWS V14.01,2013-02-07 17:24:00,
2013-02-07 09:29:00,47.7,39.8,30.06,South,185,0.0,0.0,74,0.00,,---,0.00,VWS V14.01,2013-02-07 17:29:00,
2013-02-07 09:34:00,49.2,40.6,30.06,South,185,0.0,0.0,72,0.00,,---,0.00,VWS V14.01,2013-02-07 17:34:00,
2013-02-07 09:39:00,49.8,39.7,30.06,South,185,0.0,0.0,68,0.00,,---,0.00,VWS V14.01,2013-02-07 17:39:00,
2013-02-07 09:44:00,51.0,40.8,30.06,South,185,0.0,0.0,68,0.00,,---,0.00,VWS V14.01,2013-02-07 17:44:00,
2013-02-07 09:49:00,51.1,40.5,30.06,South,188,0.0,0.0,67,0.00,,---,0.00,VWS V14.01,2013-02-07 17:49:00,
2013-02-07 09:54:00,51.6,39.8,30.06,SSW,195,0.0,0.0,64,0.00,,---,0.00,VWS V14.01,2013-02-07 17:54:00,
2013-02-07 10:04:00,52.8,39.3,30.06,SSE,148,0.0,0.0,60,0.00,,---,0.00,VWS V14.01,2013-02-07 18:04:00,
2013-02-07 10:14:00,53.6,39.2,30.05,South,176,0.0,0.0,58,0.00,,---,0.00,VWS V14.01,2013-02-07 18:14:00,
2013-02-07 10:19:00,53.6,39.2,30.05,South,176,0.0,0.0,58,0.00,,---,0.00,VWS V14.01,2013-02-07 18:19:00,
2013-02-07 10:29:00,54.7,38.9,30.05,South,178,0.0,0.0,55,0.00,,---,0.00,VWS V14.01,2013-02-07 18:29:00,
2013-02-07 10:39:00,56.0,41.9,30.05,South,178,0.0,0.0,59,0.00,,---,0.00,VWS V14.01,2013-02-07 18:39:00,
2013-02-07 10:44:00,56.3,42.6,30.05,South,176,0.0,0.0,60,0.00,,---,0.00,VWS V14.01,2013-02-07 18:44:00,
2013-02-07 10:49:00,56.2,43.0,30.05,SW,224,0.0,0.0,61,0.00,,---,0.00,VWS V14.01,2013-02-07 18:49:00,
2013-02-07 10:59:00,56.9,44.9,30.04,WSW,251,0.0,0.0,64,0.00,,---,0.00,VWS V14.01,2013-02-07 18:59:00,
2013-02-07 11:04:00,57.3,46.5,30.04,South,174,0.0,0.0,67,0.00,,---,0.00,VWS V14.01,2013-02-07 19:04:00,
2013-02-07 11:09:00,58.3,47.4,30.04,SSE,164,0.0,0.0,67,0.00,,---,0.00,VWS V14.01,2013-02-07 19:09:00,
2013-02-07 11:19:00,58.9,47.6,30.03,SW,215,0.0,0.0,66,0.00,,---,0.00,VWS V14.01,2013-02-07 19:19:00,
2013-02-07 11:24:00,58.9,48.4,30.03,SW,220,0.0,7.0,68,0.00,,---,0.00,VWS V14.01,2013-02-07 19:24:00,
2013-02-07 11:29:00,58.4,47.9,30.03,SSW,202,0.0,0.0,68,0.00,,---,0.00,VWS V14.01,2013-02-07 19:29:00,
2013-02-07 11:39:00,60.1,49.1,30.03,SSW,210,0.0,1.0,67,0.00,,---,0.00,VWS V14.01,2013-02-07 19:39:00,
2013-02-07 11:49:00,60.2,48.8,30.01,SW,224,0.0,1.0,66,0.00,,---,0.00,VWS V14.01,2013-02-07 19:49:00,
2013-02-07 11:54:00,59.6,48.2,30.01,WNW,282,0.0,1.0,66,0.00,,---,0.00,VWS V14.01,2013-02-07 19:54:00,
2013-02-07 11:59:00,60.2,49.6,30.01,WSW,248,0.0,0.0,68,0.00,,---,0.00,VWS V14.01,2013-02-07 19:59:00,
2013-02-07 12:09:00,60.7,48.9,30.01,SSE,162,0.0,5.0,65,0.00,,---,0.00,VWS V14.01,2013-02-07 20:09:00,
2013-02-07 12:19:00,61.8,49.5,30.00,SSW,192,0.0,2.0,64,0.00,,---,0.00,VWS V14.01,2013-02-07 20:19:00,
2013-02-07 12:24:00,61.8,49.5,30.00,SSW,205,0.0,0.0,64,0.00,,---,0.00,VWS V14.01,2013-02-07 20:24:00,
2013-02-07 12:34:00,60.2,48.0,29.99,South,176,0.0,7.0,64,0.00,,---,0.00,VWS V14.01,2013-02-07 20:34:00,
2013-02-07 12:40:00,61.2,48.9,29.99,South,178,0.0,8.0,64,0.00,,---,0.00,VWS V14.01,2013-02-07 20:40:00,
2013-02-07 12:45:00,61.2,48.1,29.98,WNW,285,0.0,8.0,62,0.00,,---,0.00,VWS V14.01,2013-02-07 20:45:00,
2013-02-07 12:49:00,61.6,48.9,29.98,SW,232,0.0,7.0,63,0.00,,---,0.00,VWS V14.01,2013-02-07 20:49:00,
2013-02-07 12:55:00,62.6,49.8,29.98,SW,222,0.0,6.0,63,0.00,,---,0.00,VWS V14.01,2013-02-07 20:55:00,
2013-02-07 12:59:00,62.1,49.4,29.97,SSW,209,0.0,6.0,63,0.00,,---,0.00,VWS V14.01,2013-02-07 20:59:00,
2013-02-07 13:09:00,62.1,49.8,29.97,South,171,1.0,11.0,64,0.00,,---,0.00,VWS V14.01,2013-02-07 21:09:00,
2013-02-07 13:14:00,62.1,49.4,29.96,West,265,2.0,8.0,63,0.00,,---,0.00,VWS V14.01,2013-02-07 21:14:00,
2013-02-07 13:20:00,62.4,49.7,29.96,SW,223,1.0,8.0,63,0.00,,---,0.00,VWS V14.01,2013-02-07 21:20:00,
2013-02-07 13:30:00,62.4,49.2,29.95,SW,217,0.0,8.0,62,0.00,,---,0.00,VWS V14.01,2013-02-07 21:30:00,
2013-02-07 13:39:00,62.3,49.6,29.95,SSW,202,0.0,11.0,63,0.00,,---,0.00,VWS V14.01,2013-02-07 21:39:00,
2013-02-07 13:44:00,62.4,49.7,29.95,South,182,3.0,8.0,63,0.00,,---,0.00,VWS V14.01,2013-02-07 21:44:00,
2013-02-07 13:50:00,62.1,48.9,29.95,WNW,282,4.0,12.0,62,0.00,,---,0.00,VWS V14.01,2013-02-07 21:50:00,
2013-02-07 13:59:00,60.7,48.9,29.95,SW,227,0.0,4.0,65,0.00,,---,0.00,VWS V14.01,2013-02-07 21:59:00,
2013-02-07 14:05:00,60.2,48.4,29.95,SSW,199,2.0,10.0,65,0.00,,---,0.00,VWS V14.01,2013-02-07 22:05:00,
2013-02-07 14:10:00,60.1,48.7,29.95,WSW,239,1.0,10.0,66,0.00,,---,0.00,VWS V14.01,2013-02-07 22:10:00,
2013-02-07 14:19:00,59.3,48.4,29.95,SW,229,6.0,10.0,67,0.00,,---,0.00,VWS V14.01,2013-02-07 22:19:00,
2013-02-07 14:24:00,59.9,48.9,29.95,WSW,244,8.0,10.0,67,0.00,,---,0.00,VWS V14.01,2013-02-07 22:24:00,
2013-02-07 14:29:00,59.5,48.9,29.95,SW,236,0.0,10.0,68,0.00,,---,0.00,VWS V14.01,2013-02-07 22:29:00,
2013-02-07 14:34:00,58.6,48.1,29.95,SW,227,0.0,13.0,68,0.00,,---,0.00,VWS V14.01,2013-02-07 22:34:00,
2013-02-07 14:40:00,58.6,48.9,29.95,WSW,253,5.0,8.0,70,0.00,,---,0.00,VWS V14.01,2013-02-07 22:40:00,
2013-02-07 14:45:00,58.0,48.3,29.95,SSW,202,7.0,13.0,70,0.00,,---,0.00,VWS V14.01,2013-02-07 22:45:00,
2013-02-07 14:50:00,57.6,48.3,29.95,SW,232,12.0,12.0,71,0.00,,---,0.00,VWS V14.01,2013-02-07 22:50:00,
2013-02-07 14:55:00,57.5,48.6,29.95,WSW,246,12.0,13.0,72,0.00,,---,0.00,VWS V14.01,2013-02-07 22:55:00,
2013-02-07 15:04:00,56.7,47.8,29.95,WSW,248,10.0,10.0,72,0.00,,---,0.00,VWS V14.01,2013-02-07 23:04:00,
2013-02-07 15:09:00,56.5,48.0,29.95,WSW,244,1.0,16.0,73,0.00,,---,0.00,VWS V14.01,2013-02-07 23:09:00,
2013-02-07 15:15:00,56.7,48.2,29.95,SW,215,6.0,10.0,73,0.00,,---,0.00,VWS V14.01,2013-02-07 23:15:00,
2013-02-07 15:20:00,56.9,48.3,29.95,WSW,247,5.0,11.0,73,0.00,,---,0.00,VWS V14.01,2013-02-07 23:20:00,
2013-02-07 15:25:00,56.7,47.8,29.95,SSW,213,0.0,12.0,72,0.00,,---,0.00,VWS V14.01,2013-02-07 23:25:00,
2013-02-07 15:35:00,56.3,47.4,29.94,SW,234,0.0,7.0,72,0.00,,---,0.00,VWS V14.01,2013-02-07 23:35:00,
2013-02-07 15:40:00,56.0,47.1,29.94,WSW,251,2.0,13.0,72,0.00,,---,0.00,VWS V14.01,2013-02-07 23:40:00,
2013-02-07 15:50:00,56.2,47.7,29.94,SW,236,2.0,7.0,73,0.00,,---,0.00,VWS V14.01,2013-02-07 23:50:00,
2013-02-07 15:59:00,55.9,47.4,29.94,SW,234,0.0,6.0,73,0.00,,---,0.00,VWS V14.01,2013-02-07 23:59:00,
2013-02-07 16:04:00,56.2,47.7,29.94,WSW,246,2.0,7.0,73,0.00,,---,0.00,VWS V14.01,2013-02-08 00:04:00,
2013-02-07 16:10:00,56.3,47.4,29.94,SW,227,0.0,2.0,72,0.00,,---,0.00,VWS V14.01,2013-02-08 00:10:00,
2013-02-07 16:15:00,56.0,47.5,29.94,West,261,0.0,1.0,73,0.00,,---,0.00,VWS V14.01,2013-02-08 00:15:00,
2013-02-07 16:20:00,55.7,47.2,29.94,WSW,258,0.0,1.0,73,0.00,,---,0.00,VWS V14.01,2013-02-08 00:20:00,
2013-02-07 16:25:00,55.6,47.1,29.94,WSW,257,0.0,1.0,73,0.00,,---,0.00,VWS V14.01,2013-02-08 00:25:00,
2013-02-07 16:30:00,55.4,47.3,29.94,WSW,246,0.0,0.0,74,0.00,,---,0.00,VWS V14.01,2013-02-08 00:30:00,
2013-02-07 16:40:00,55.4,47.3,29.94,WSW,250,0.0,0.0,74,0.00,,---,0.00,VWS V14.01,2013-02-08 00:40:00,
2013-02-07 16:45:00,55.4,47.3,29.94,West,264,0.0,0.0,74,0.00,,---,0.00,VWS V14.01,2013-02-08 00:45:00,
2013-02-07 16:50:00,55.4,47.3,29.94,West,264,0.0,0.0,74,0.00,,---,0.00,VWS V14.01,2013-02-08 00:50:00,
2013-02-07 17:00:00,55.3,47.2,29.93,West,264,0.0,0.0,74,0.00,,---,0.00,VWS V14.01,2013-02-08 01:00:00,
2013-02-07 17:05:00,55.3,47.5,29.93,West,264,0.0,0.0,75,0.00,,---,0.00,VWS V14.01,2013-02-08 01:05:00,
2013-02-07 17:15:00,55.1,47.3,29.93,SW,224,0.0,0.0,75,0.00,,---,0.00,VWS V14.01,2013-02-08 01:15:00,
2013-02-07 17:20:00,55.0,47.2,29.93,SW,226,0.0,0.0,75,0.00,,---,0.00,VWS V14.01,2013-02-08 01:20:00,
2013-02-07 17:29:00,54.8,47.0,29.93,SW,226,0.0,0.0,75,0.00,,---,0.00,VWS V14.01,2013-02-08 01:29:00,
2013-02-07 17:35:00,54.7,47.3,29.93,SW,226,0.0,0.0,76,0.00,,---,0.00,VWS V14.01,2013-02-08 01:35:00,
2013-02-07 17:45:00,54.5,47.1,29.93,WSW,240,0.0,0.0,76,0.00,,---,0.00,VWS V14.01,2013-02-08 01:45:00,
2013-02-07 17:50:00,54.4,47.0,29.93,WSW,239,0.0,0.0,76,0.00,,---,0.00,VWS V14.01,2013-02-08 01:50:00,
2013-02-07 18:00:00,53.9,46.5,29.93,SW,232,0.0,0.0,76,0.00,,---,0.00,VWS V14.01,2013-02-08 02:00:00,
2013-02-07 18:09:00,53.8,46.8,29.93,SW,223,0.0,0.0,77,0.00,,---,0.00,VWS V14.01,2013-02-08 02:09:00,
2013-02-07 18:15:00,53.6,46.6,29.93,West,260,0.0,0.0,77,0.00,,---,0.00,VWS V14.01,2013-02-08 02:15:00,
2013-02-07 18:20:00,53.5,46.5,29.93,West,261,0.0,0.0,77,0.00,,---,0.00,VWS V14.01,2013-02-08 02:20:00,
2013-02-07 18:29:00,53.2,46.5,29.93,WSW,243,0.0,0.0,78,0.00,,---,0.00,VWS V14.01,2013-02-08 02:29:00,
2013-02-07 18:34:00,53.2,46.5,29.93,WSW,243,0.0,0.0,78,0.00,,---,0.00,VWS V14.01,2013-02-08 02:34:00,
2013-02-07 18:39:00,53.1,46.4,29.93,WSW,243,0.0,0.0,78,0.00,,---,0.00,VWS V14.01,2013-02-08 02:39:00,
2013-02-07 18:45:00,53.1,46.4,29.93,WSW,243,0.0,0.0,78,0.00,,---,0.00,VWS V14.01,2013-02-08 02:45:00,
2013-02-07 18:50:00,52.9,46.2,29.93,WSW,243,0.0,0.0,78,0.00,,---,0.00,VWS V14.01,2013-02-08 02:50:00,
2013-02-07 19:00:00,52.9,46.2,29.93,WSW,243,0.0,0.0,78,0.00,,---,0.00,VWS V14.01,2013-02-08 03:00:00,
2013-02-07 19:10:00,52.8,46.1,29.93,WSW,243,0.0,0.0,78,0.00,,---,0.00,VWS V14.01,2013-02-08 03:10:00,
2013-02-07 19:19:00,52.8,46.5,29.92,WSW,243,0.0,0.0,79,0.00,,---,0.00,VWS V14.01,2013-02-08 03:19:00,
2013-02-07 19:25:00,52.8,46.5,29.92,WSW,243,0.0,0.0,79,0.00,,---,0.00,VWS V14.01,2013-02-08 03:25:00,
2013-02-07 19:35:00,52.6,46.3,29.92,WSW,243,0.0,0.0,79,0.00,,---,0.00,VWS V14.01,2013-02-08 03:35:00,
2013-02-07 19:45:00,52.5,46.2,29.92,WSW,243,0.0,0.0,79,0.00,,---,0.00,VWS V14.01,2013-02-08 03:45:00,
2013-02-07 19:50:00,52.3,46.0,29.92,WSW,243,0.0,0.0,79,0.00,,---,0.00,VWS V14.01,2013-02-08 03:50:00,
2013-02-07 19:55:00,52.2,45.9,29.92,WSW,243,0.0,0.0,79,0.00,,---,0.00,VWS V14.01,2013-02-08 03:55:00,
2013-02-07 20:00:00,52.0,45.7,29.92,WSW,243,0.0,0.0,79,0.00,,---,0.00,VWS V14.01,2013-02-08 04:00:00,
2013-02-07 20:05:00,51.9,45.6,29.92,WSW,243,0.0,0.0,79,0.00,,---,0.00,VWS V14.01,2013-02-08 04:05:00,
2013-02-07 20:15:00,51.6,45.6,29.92,WSW,243,0.0,0.0,80,0.00,,---,0.00,VWS V14.01,2013-02-08 04:15:00,
2013-02-07 20:20:00,51.4,45.5,29.92,WSW,243,0.0,0.0,80,0.00,,---,0.00,VWS V14.01,2013-02-08 04:20:00,
2013-02-07 20:25:00,51.3,45.3,29.92,WSW,243,0.0,0.0,80,0.00,,---,0.00,VWS V14.01,2013-02-08 04:25:00,
2013-02-07 20:30:00,51.3,45.7,29.91,WSW,243,0.0,0.0,81,0.00,,---,0.00,VWS V14.01,2013-02-08 04:30:00,
2013-02-07 20:35:00,51.1,45.5,29.91,WSW,243,0.0,0.0,81,0.00,,---,0.00,VWS V14.01,2013-02-08 04:35:00,
2013-02-07 20:40:00,51.1,45.5,29.91,WSW,243,0.0,0.0,81,0.00,,---,0.00,VWS V14.01,2013-02-08 04:40:00,
2013-02-07 20:50:00,51.0,45.4,29.91,WSW,243,0.0,0.0,81,0.00,,---,0.00,VWS V14.01,2013-02-08 04:50:00,
2013-02-07 21:00:00,50.8,45.2,29.91,WSW,243,0.0,0.0,81,0.00,,---,0.00,VWS V14.01,2013-02-08 05:00:00,
2013-02-07 21:04:00,50.8,45.5,29.91,WSW,243,0.0,0.0,82,0.00,,---,0.00,VWS V14.01,2013-02-08 05:04:00,
2013-02-07 21:09:00,50.7,45.4,29.91,WSW,243,0.0,0.0,82,0.00,,---,0.00,VWS V14.01,2013-02-08 05:09:00,
2013-02-07 21:14:00,50.7,45.4,29.90,WSW,243,0.0,0.0,82,0.00,,---,0.00,VWS V14.01,2013-02-08 05:14:00,
2013-02-07 21:20:00,50.5,45.2,29.90,WSW,243,0.0,0.0,82,0.00,,---,0.00,VWS V14.01,2013-02-08 05:20:00,
2013-02-07 21:25:00,50.5,45.2,29.90,WSW,243,0.0,0.0,82,0.00,,---,0.00,VWS V14.01,2013-02-08 05:25:00,
2013-02-07 21:34:00,50.2,44.9,29.90,WSW,243,0.0,0.0,82,0.00,,---,0.00,VWS V14.01,2013-02-08 05:34:00,
2013-02-07 21:39:00,50.1,44.8,29.90,WSW,243,0.0,0.0,82,0.00,,---,0.00,VWS V14.01,2013-02-08 05:39:00,
2013-02-07 21:45:00,49.9,44.6,29.90,WSW,243,0.0,0.0,82,0.00,,---,0.00,VWS V14.01,2013-02-08 05:45:00,
2013-02-07 21:55:00,49.5,44.2,29.90,WSW,243,0.0,0.0,82,0.00,,---,0.00,VWS V14.01,2013-02-08 05:55:00,
2013-02-07 22:00:00,49.4,44.1,29.90,WSW,243,0.0,0.0,82,0.00,,---,0.00,VWS V14.01,2013-02-08 06:00:00,
2013-02-07 22:05:00,49.2,44.0,29.90,WSW,243,0.0,0.0,82,0.00,,---,0.00,VWS V14.01,2013-02-08 06:05:00,
2013-02-07 22:09:00,49.1,43.8,29.90,WSW,243,0.0,0.0,82,0.00,,---,0.00,VWS V14.01,2013-02-08 06:09:00,
2013-02-07 22:14:00,48.9,43.7,29.90,WSW,243,0.0,0.0,82,0.00,,---,0.00,VWS V14.01,2013-02-08 06:14:00,
2013-02-07 22:20:00,48.6,43.4,29.90,WSW,243,0.0,0.0,82,0.00,,---,0.00,VWS V14.01,2013-02-08 06:20:00,
2013-02-07 22:29:00,48.3,43.1,29.90,WSW,243,0.0,0.0,82,0.00,,---,0.00,VWS V14.01,2013-02-08 06:29:00,
2013-02-07 22:34:00,48.2,43.0,29.90,WSW,243,0.0,0.0,82,0.00,,---,0.00,VWS V14.01,2013-02-08 06:34:00,
2013-02-07 22:40:00,48.0,42.8,29.90,WSW,243,0.0,0.0,82,0.00,,---,0.00,VWS V14.01,2013-02-08 06:40:00,
2013-02-07 22:49:00,47.9,43.0,29.90,WSW,243,0.0,0.0,83,0.00,,---,0.00,VWS V14.01,2013-02-08 06:49:00,
2013-02-07 22:54:00,47.7,42.8,29.90,WSW,243,0.0,0.0,83,0.00,,---,0.00,VWS V14.01,2013-02-08 06:54:00,
2013-02-07 23:00:00,47.6,42.7,29.90,WSW,243,0.0,0.0,83,0.00,,---,0.00,VWS V14.01,2013-02-08 07:00:00,
2013-02-07 23:05:00,47.4,42.8,29.90,WSW,243,0.0,0.0,84,0.00,,---,0.00,VWS V14.01,2013-02-08 07:05:00,
2013-02-07 23:10:00,47.3,42.7,29.90,WSW,243,0.0,0.0,84,0.00,,---,0.00,VWS V14.01,2013-02-08 07:10:00,
2013-02-07 23:20:00,46.8,42.2,29.89,WSW,243,0.0,0.0,84,0.00,,---,0.00,VWS V14.01,2013-02-08 07:20:00,
2013-02-07 23:30:00,46.4,41.8,29.89,WSW,243,0.0,0.0,84,0.00,,---,0.00,VWS V14.01,2013-02-08 07:30:00,
2013-02-07 23:39:00,46.2,42.0,29.89,WSW,243,0.0,0.0,85,0.00,,---,0.00,VWS V14.01,2013-02-08 07:39:00,
2013-02-07 23:45:00,46.2,42.0,29.89,WSW,243,0.0,0.0,85,0.00,,---,0.00,VWS V14.01,2013-02-08 07:45:00,
2013-02-07 23:50:00,46.4,42.5,29.89,WSW,243,0.0,0.0,86,0.00,,---,0.00,VWS V14.01,2013-02-08 07:50:00,